This is the latest recevied weather packets stored in our database for station/object KC1DMA. If no packets are shown the sender has not sent any weather packets the latest 1 day(s).
| Time | Temp. | Humidity | Pressure | Rain* | Wind** | Luminosity | Snow |
|---|---|---|---|---|---|---|---|
| 1778085726 | 16.67° C | 81% | 1011.3 hPa | - | - | 146 W/m² | - |
| 1778084511 | 17.22° C | 78% | 1011.5 hPa | - | - | 175 W/m² | - |
| 1778083905 | 17.22° C | 77% | 1011.3 hPa | - | - | 312 W/m² | - |
| 1778083603 | 17.22° C | 77% | 1011.5 hPa | - | - | 299 W/m² | - |
| 1778082694 | 17.78° C | 77% | 1011.9 hPa | - | - | 208 W/m² | - |
| 1778081556 | 17.78° C | 77% | 1011.8 hPa | - | - | 265 W/m² | - |
| 1778081253 | 17.78° C | 76% | 1011.6 hPa | - | - | 251 W/m² | - |
| 1778080951 | 17.78° C | 76% | 1011.5 hPa | - | - | 259 W/m² | - |
| 1778080345 | 17.78° C | 76% | 1011.5 hPa | - | - | 226 W/m² | - |
| 1778080042 | 17.78° C | 76% | 1011.5 hPa | - | - | 189 W/m² | - |
| 1778079740 | 17.78° C | 75% | 1011.7 hPa | - | - | 234 W/m² | - |
| 1778077923 | 18.33° C | 74% | 1011.8 hPa | - | - | 425 W/m² | - |
| 1778077621 | 18.33° C | 73% | 1011.7 hPa | - | - | 476 W/m² | - |
| 1778074894 | 17.78° C | 76% | 1011.8 hPa | - | - | 356 W/m² | - |
| 1778073076 | 16.67° C | 80% | 1011.7 hPa | - | - | 249 W/m² | - |
| 1778072471 | 16.67° C | 80% | 1011.8 hPa | - | - | 277 W/m² | - |
| 1778072169 | 16.67° C | 80% | 1011.9 hPa | - | - | 224 W/m² | - |
| 1778070959 | 16.67° C | 81% | 1012.5 hPa | - | - | 338 W/m² | - |
| 1778069445 | 16.11° C | 83% | 1012.3 hPa | - | - | 373 W/m² | - |
| 1778067632 | 14.44° C | 88% | 1012.2 hPa | - | - | 147 W/m² | - |
| 1778066723 | 13.89° C | 91% | 1012.3 hPa | - | - | 93 W/m² | - |
| 1778065513 | 13.89° C | 91% | 1012.4 hPa | - | - | 100 W/m² | - |
| 1778065210 | 13.89° C | 91% | 1012.3 hPa | - | - | 64 W/m² | - |
| 1778064906 | 13.89° C | 91% | 1012.4 hPa | - | - | 70 W/m² | - |
| 1778063999 | 13.33° C | 92% | 1012.5 hPa | - | - | 52 W/m² | - |
* Rain since midnight (hover to see other rain measurements)
** Current wind speed in m/s (hover to see current wind gust speed)